Location: NJAA Observatory
(40.6819°N, 74.8979°W)
Time: 18:55:06
(UTC-05:00)

Vanguard 1 - All Passes

Search period start: 21 January 2018 00:00
Search period end: 31 January 2018 00:00
Orbit: 649 x 3834 km, 34.2° (Epoch: 21 January)

Date Brightness Start Highest point End Pass type
(mag) Time Alt. Az. Time Alt. Az. Time Alt. Az.
21 Jan - 00:19:37 10° WSW 00:26:55 57° SSE 00:40:32 10° E visible
21 Jan - 02:38:48 10° W 02:49:04 62° S 03:07:47 10° ESE visible
21 Jan - 04:59:37 10° W 05:12:50 43° SSW 05:32:49 10° SE visible
21 Jan - 07:25:19 10° WSW 07:36:51 19° SW 07:50:19 10° S daylight
21 Jan - 22:22:36 10° SSW 22:27:44 30° SSE 22:35:46 10° E night (unlit)
22 Jan - 00:40:20 10° WSW 00:47:53 61° S 01:02:07 10° E visible
22 Jan - 02:59:45 10° W 03:10:16 58° SSW 03:29:05 10° ESE visible
22 Jan - 05:21:04 10° W 05:34:02 36° SSW 05:52:50 10° SSE visible
22 Jan - 07:50:36 10° WSW 07:57:53 13° SW 08:05:52 10° SSW daylight
22 Jan - 22:42:51 10° SW 22:48:20 38° SSE 22:57:23 10° E night (unlit)
23 Jan - 01:01:07 10° WSW 01:08:56 62° S 01:23:41 10° ESE visible
23 Jan - 03:20:46 10° W 03:31:29 52° SSW 03:50:08 10° SE visible
23 Jan - 05:42:50 10° W 05:55:13 29° SSW 06:12:18 10° SSE visible
23 Jan - 20:48:11 10° SSE 20:50:12 12° SE 20:52:29 10° ESE night (unlit)
23 Jan - 23:03:19 10° SW 23:09:03 46° SSE 23:18:55 10° E night (unlit)
24 Jan - 01:21:56 10° W 01:30:00 61° S 01:45:11 10° ESE visible
24 Jan - 03:41:52 10° W 03:52:41 45° SSW 04:10:53 10° SE visible
24 Jan - 06:05:10 10° W 06:16:23 22° SW 06:30:59 10° S visible
24 Jan - 21:07:06 10° S 21:10:37 18° SE 21:15:07 10° ESE night (unlit)
24 Jan - 23:23:56 10° WSW 23:29:53 52° SSE 23:40:25 10° E night (unlit)
25 Jan - 01:42:49 10° W 01:51:06 57° S 02:06:34 10° ESE visible
25 Jan - 04:03:06 10° W 04:13:53 38° SSW 04:31:16 10° SE visible
25 Jan - 06:28:35 10° WSW 06:37:32 16° SW 06:48:23 10° S visible
25 Jan - 21:26:58 10° SSW 21:31:07 25° SSE 21:36:55 10° E night (unlit)
25 Jan - 23:44:38 10° WSW 23:50:47 56° S 00:01:52 10° E night (unlit)
26 Jan - 02:03:43 10° W 02:12:13 52° SSW 02:27:46 10° ESE visible
26 Jan - 04:24:34 10° W 04:35:06 31° SSW 04:51:10 10° SSE visible
26 Jan - 06:56:31 10° SW 06:58:44 10° SW 07:01:04 10° SW daylight
26 Jan - 21:47:13 10° SW 21:51:44 33° SSE 21:58:27 10° E night (unlit)
27 Jan - 00:05:23 10° WSW 00:11:45 57° S 00:23:18 10° ESE visible
27 Jan - 02:24:42 10° W 02:33:21 46° SSW 02:48:44 10° SE visible
27 Jan - 04:46:26 10° W 04:56:19 25° SSW 05:10:28 10° SSE visible
27 Jan - 22:07:41 10° SW 22:12:27 41° SSE 22:19:51 10° E night (unlit)
28 Jan - 00:26:12 10° W 00:32:44 55° S 00:44:39 10° ESE visible
28 Jan - 02:45:48 10° W 02:54:30 39° SSW 03:09:23 10° SE visible
28 Jan - 05:09:00 10° WSW 05:17:33 18° SSW 05:28:48 10° S visible
28 Jan - 20:11:22 10° S 20:14:06 16° SSE 20:17:14 10° ESE visible
28 Jan - 22:28:17 10° WSW 22:33:15 47° SSE 22:41:12 10° E night (unlit)
29 Jan - 00:47:03 10° W 00:53:46 51° S 01:05:54 10° ESE visible
29 Jan - 03:07:04 10° W 03:15:41 32° SSW 03:29:38 10° SSE visible
29 Jan - 05:33:23 10° WSW 05:38:48 12° SW 05:45:07 10° SSW visible
29 Jan - 20:31:11 10° SSW 20:34:43 22° SSE 20:39:00 10° ESE visible
29 Jan - 22:49:00 10° WSW 22:54:07 50° S 23:02:30 10° ESE night (unlit)
30 Jan - 01:07:58 10° W 01:14:48 45° SSW 01:26:58 10° SE visible
30 Jan - 03:28:38 10° WSW 03:36:53 26° SSW 03:49:22 10° SSE visible
30 Jan - 20:51:27 10° SW 20:55:22 29° SSE 21:00:25 10° E visible
30 Jan - 23:09:46 10° WSW 23:15:01 51° S 23:23:46 10° ESE night (unlit)
